When you browse on this site, cookies collect data to enhance your experience and personalize the content and advertising you see.
Visit our Privacy Policy to learn more. By continuing to use the site, you agree to this use of cookies and data.
  • en Suisse
  • Liste des pays
  • À 7 jours
  • Température de l'eau
  • Carte météo
  • Widgets météo
  • user-avatar
    Se connecter

    Météo par heure à Finiks

    Ce jour, 11 Décembre, Mercredi

    Heure Température Précipitation Vent Pression Humidité
    00:00 +15°C° 0 mm 0 m/s 736 mmHg 42%
    01:00 +16°C° 0 mm 1 m/s 736 mmHg 42%
    02:00 +15°C° 0 mm 1 m/s 736 mmHg 43%
    03:00 +15°C° 0 mm 1 m/s 736 mmHg 42%
    04:00 +15°C° 0 mm 1 m/s 736 mmHg 42%
    05:00 +15°C° 0 mm 1 m/s 735 mmHg 42%
    06:00 +15°C° 0 mm 1 m/s 735 mmHg 43%
    07:00 +15°C° 0 mm 1 m/s 735 mmHg 43%
    08:00 +15°C° 0 mm 1 m/s 735 mmHg 43%
    09:00 +16°C° 0 mm 1 m/s 735 mmHg 40%
    10:00 +18°C° 0 mm 1 m/s 736 mmHg 37%
    11:00 +19°C° 0 mm 1 m/s 736 mmHg 33%
    12:00 +20°C° 0 mm 1 m/s 735 mmHg 31%
    13:00 +20°C° 0 mm 1 m/s 734 mmHg 30%
    14:00 +19°C° 0 mm 0 m/s 734 mmHg 28%
    15:00 +19°C° 0 mm 0 m/s 734 mmHg 30%
    16:00 +19°C° 0 mm 0 m/s 734 mmHg 32%
    17:00 +18°C° 0 mm 0 m/s 734 mmHg 34%
    18:00 +20°C° 0 mm 1 m/s 734 mmHg 35%
    19:00 +19°C° 0 mm 1 m/s 734 mmHg 36%
    20:00 +18°C° 0 mm 1 m/s 735 mmHg 37%
    21:00 +18°C° 0 mm 1 m/s 735 mmHg 38%
    22:00 +18°C° 0 mm 1 m/s 735 mmHg 39%
    23:00 +16°C° 0 mm 1 m/s 736 mmHg 40%

    Demain, 12 Décembre, Jeudi

    Heure Température Précipitation Vent Pression Humidité
    00:00 +15°C° 0 mm 0 m/s 736 mmHg 41%
    01:00 +14°C° 0 mm 0 m/s 736 mmHg 41%
    02:00 +14°C° 0 mm 0 m/s 735 mmHg 42%
    03:00 +14°C° 0 mm 0 m/s 735 mmHg 42%
    04:00 +14°C° 0 mm 0 m/s 735 mmHg 43%
    05:00 +13°C° 0 mm 0 m/s 735 mmHg 43%
    06:00 +14°C° 0 mm 1 m/s 736 mmHg 43%
    07:00 +14°C° 0 mm 1 m/s 736 mmHg 44%
    08:00 +14°C° 0 mm 1 m/s 736 mmHg 44%
    09:00 +16°C° 0 mm 1 m/s 737 mmHg 40%
    10:00 +18°C° 0 mm 1 m/s 737 mmHg 36%
    11:00 +19°C° 0 mm 1 m/s 737 mmHg 32%
    12:00 +20°C° 0 mm 1 m/s 736 mmHg 31%
    13:00 +20°C° 0 mm 1 m/s 736 mmHg 30%
    14:00 +21°C° 0 mm 1 m/s 735 mmHg 29%
    15:00 +21°C° 0 mm 1 m/s 735 mmHg 30%
    16:00 +20°C° 0 mm 1 m/s 735 mmHg 32%
    17:00 +20°C° 0 mm 1 m/s 735 mmHg 34%
    18:00 +19°C° 0 mm 1 m/s 735 mmHg 36%
    19:00 +19°C° 0 mm 1 m/s 736 mmHg 37%
    20:00 +18°C° 0 mm 1 m/s 736 mmHg 39%
    21:00 +18°C° 0 mm 1 m/s 736 mmHg 40%
    22:00 +15°C° 0 mm 0 m/s 736 mmHg 41%
    23:00 +15°C° 0 mm 0 m/s 736 mmHg 42%

    Après-demain, 13 Décembre, Vendredi

    Heure Température Précipitation Vent Pression Humidité
    00:00 +15°C° 0 mm 0 m/s 736 mmHg 42%
    01:00 +14°C° 0 mm 0 m/s 735 mmHg 42%
    02:00 +14°C° 0 mm 0 m/s 735 mmHg 43%
    03:00 +14°C° 0 mm 0 m/s 735 mmHg 43%
    04:00 +14°C° 0 mm 0 m/s 735 mmHg 43%
    05:00 +14°C° 0 mm 0 m/s 735 mmHg 43%
    06:00 +14°C° 0 mm 0 m/s 735 mmHg 43%
    07:00 +15°C° 0 mm 1 m/s 735 mmHg 43%
    08:00 +15°C° 0 mm 1 m/s 735 mmHg 43%
    09:00 +16°C° 0 mm 1 m/s 735 mmHg 39%
    10:00 +18°C° 0 mm 1 m/s 735 mmHg 36%
    11:00 +20°C° 0 mm 1 m/s 735 mmHg 32%
    12:00 +20°C° 0 mm 1 m/s 734 mmHg 30%
    13:00 +19°C° 0 mm 0 m/s 733 mmHg 29%
    14:00 +20°C° 0 mm 0 m/s 733 mmHg 28%
    15:00 +19°C° 0 mm 0 m/s 732 mmHg 30%
    16:00 +19°C° 0 mm 0 m/s 732 mmHg 32%
    17:00 +19°C° 0 mm 0 m/s 732 mmHg 35%
    18:00 +18°C° 0 mm 0 m/s 732 mmHg 36%
    19:00 +18°C° 0 mm 0 m/s 732 mmHg 38%
    20:00 +17°C° 0 mm 0 m/s 732 mmHg 39%
    21:00 +17°C° 0 mm 0 m/s 731 mmHg 40%
    22:00 +16°C° 0 mm 0 m/s 731 mmHg 40%
    23:00 +16°C° 0 mm 0 m/s 731 mmHg 41%

    14 Décembre, Samedi

    Heure Température Précipitation Vent Pression Humidité
    00:00 +16°C° 0 mm 0 m/s 730 mmHg 42%
    01:00 +15°C° 0 mm 0 m/s 730 mmHg 42%
    02:00 +15°C° 0 mm 0 m/s 730 mmHg 43%
    03:00 +15°C° 0 mm 0 m/s 729 mmHg 44%
    04:00 +14°C° 0 mm 0 m/s 729 mmHg 44%
    05:00 +14°C° 0 mm 0 m/s 728 mmHg 45%
    06:00 +14°C° 0 mm 0 m/s 728 mmHg 46%
    07:00 +14°C° 0 mm 0 m/s 728 mmHg 46%
    08:00 +15°C° 0 mm 1 m/s 728 mmHg 47%
    09:00 +18°C° 0 mm 1 m/s 728 mmHg 43%
    10:00 +19°C° 0 mm 1 m/s 728 mmHg 38%
    11:00 +20°C° 0 mm 1 m/s 729 mmHg 34%
    12:00 +21°C° 0 mm 1 m/s 728 mmHg 32%
    13:00 +21°C° 0 mm 2 m/s 727 mmHg 30%
    14:00 +23°C° 0 mm 2 m/s 727 mmHg 28%
    15:00 +21°C° 0 mm 2 m/s 727 mmHg 30%
    16:00 +21°C° 0 mm 2 m/s 726 mmHg 32%
    17:00 +21°C° 0 mm 2 m/s 726 mmHg 34%
    18:00 +20°C° 0 mm 2 m/s 727 mmHg 35%
    19:00 +19°C° 0 mm 2 m/s 727 mmHg 37%
    20:00 +18°C° 0 mm 2 m/s 727 mmHg 38%
    21:00 +18°C° 0 mm 2 m/s 727 mmHg 42%
    22:00 +17°C° 0 mm 2 m/s 727 mmHg 46%
    23:00 +17°C° 0 mm 2 m/s 727 mmHg 49%

    15 Décembre, Dimanche

    Heure Température Précipitation Vent Pression Humidité
    00:00 +17°C° 0 mm 2 m/s 727 mmHg 51%
    01:00 +16°C° 0 mm 2 m/s 726 mmHg 53%
    02:00 +16°C° 0 mm 2 m/s 726 mmHg 55%
    03:00 +16°C° 0 mm 2 m/s 726 mmHg 58%
    04:00 +15°C° 0 mm 2 m/s 726 mmHg 60%
    05:00 +15°C° 0 mm 1 m/s 726 mmHg 63%
    06:00 +15°C° 0 mm 2 m/s 726 mmHg 64%
    07:00 +14°C° 0 mm 2 m/s 726 mmHg 65%
    08:00 +14°C° 0 mm 2 m/s 727 mmHg 66%
    09:00 +14°C° 0 mm 3 m/s 727 mmHg 59%
    10:00 +15°C° 0 mm 4 m/s 726 mmHg 53%
    11:00 +17°C° 0 mm 4 m/s 726 mmHg 46%
    12:00 +16°C° 0 mm 6 m/s 726 mmHg 44%
    13:00 +17°C° 0 mm 7 m/s 726 mmHg 41%
    14:00 +17°C° 0 mm 8 m/s 725 mmHg 39%
    15:00 +16°C° 0 mm 8 m/s 726 mmHg 40%
    16:00 +13°C° 0 mm 8 m/s 727 mmHg 41%
    17:00 +11°C° 0 mm 8 m/s 727 mmHg 42%
    18:00 +11°C° 0 mm 7 m/s 728 mmHg 42%
    19:00 +11°C° 0 mm 6 m/s 729 mmHg 42%
    20:00 +12°C° 0 mm 4 m/s 730 mmHg 42%
    21:00 +12°C° 0 mm 3 m/s 731 mmHg 43%
    22:00 +13°C° 0 mm 2 m/s 731 mmHg 44%
    23:00 +12°C° 0 mm 1 m/s 732 mmHg 45%

    16 Décembre, Lundi

    Heure Température Précipitation Vent Pression Humidité
    00:00 +12°C° 0 mm 1 m/s 732 mmHg 46%
    01:00 +12°C° 0 mm 1 m/s 733 mmHg 47%
    02:00 +11°C° 0 mm 1 m/s 733 mmHg 48%
    03:00 +10°C° 0 mm 2 m/s 733 mmHg 48%
    04:00 +10°C° 0 mm 2 m/s 733 mmHg 48%
    05:00 +10°C° 0 mm 2 m/s 733 mmHg 49%
    06:00 +10°C° 0 mm 2 m/s 734 mmHg 48%
    07:00 +10°C° 0 mm 2 m/s 735 mmHg 48%
    08:00 +10°C° 0 mm 2 m/s 735 mmHg 48%
    09:00 +12°C° 0 mm 2 m/s 735 mmHg 41%
    10:00 +12°C° 0 mm 3 m/s 735 mmHg 35%
    11:00 +13°C° 0 mm 3 m/s 735 mmHg 29%
    12:00 +15°C° 0 mm 2 m/s 734 mmHg 26%
    13:00 +16°C° 0 mm 2 m/s 733 mmHg 22%
    14:00 +17°C° 0 mm 2 m/s 733 mmHg 18%
    15:00 +18°C° 0 mm 1 m/s 733 mmHg 20%
    16:00 +16°C° 0 mm 1 m/s 733 mmHg 21%
    17:00 +15°C° 0 mm 0 m/s 733 mmHg 22%
    18:00 +16°C° 0 mm 1 m/s 733 mmHg 22%
    19:00 +15°C° 0 mm 1 m/s 734 mmHg 22%
    20:00 +14°C° 0 mm 1 m/s 734 mmHg 23%
    21:00 +14°C° 0 mm 1 m/s 734 mmHg 24%
    22:00 +14°C° 0 mm 1 m/s 735 mmHg 25%
    23:00 +13°C° 0 mm 1 m/s 735 mmHg 26%
    Voir plus